User: anonymous   Login
Location: A�n Tadlesse
(35.0351°N, 0.5353°E)
Time: 18:51:10
(UTC+00:00)
Language:

Cosmos 1076 Rocket - Orbit

View from above orbital plane
View from above orbital plane
View from above satellite
View from above satellite

Ground track
Ground track

The orbit data is extracted from the following two-line orbital elements,

1 11267U 79011B   19341.47337771  .00000063  00000-0  39261-5 0  9997
2 11267  82.5253  96.6145 0018398 104.4835 255.8426 14.88952701209883
Epoch (UTC): 07 December 2019 11:21:39
Eccentricity: 0.0018398
inclination: 82.5253°
perigee height: 588 km
apogee height: 614 km
right ascension of ascending node: 96.6145°
argument of perigee: 104.4835°
revolutions per day: 14.88952701
mean anomaly at epoch: 255.8426°
orbit number at epoch: 20988

The dashed part of the orbit path shows where the satellite is in the earth's shadow,  

DLR